Change the Weather History Date:

Monday, July 28, 2014

  Actual Average Record
Temperature  
Mean Temperature 73 °F 78 °F  
Max Temperature 84 °F 91 °F 103 °F (1986)
Min Temperature 62 °F 66 °F 53 °F (2004)
Degree Days  
Heating Degree Days 0 0  
Month to date heating degree days 2 0  
Since 1 June heating degree days 4 5  
Since 1 July heating degree days 2 0  
Cooling Degree Days 8 13  
Month to date cooling degree days 225 360  
Year to date cooling degree days 640 748  
Since 1 June cooling degree days 490 626  
Growing Degree Days 22 (Base 50)    
Moisture  
Dew Point 57 °F    
Average Humidity 59    
Maximum Humidity 78    
Minimum Humidity 40    
Precipitation  
Precipitation 0.00 in 0.09 in 1.66 in (2009)
Month to date precipitation 1.62 3.26  
Year to date precipitation 18.83 26.55  
Sea Level Pressure  
Sea Level Pressure 30.09 in    
Wind  
Wind Speed 7 mph (NNW)    
Max Wind Speed 15 mph    
Max Gust Speed 19 mph    
Visibility 10 miles    
Events      
T = Trace of Precipitation, MM = Missing Value Source: NWS Daily Summary

Daily Weather History Graph

Daily Weather History Graph

Search for Another Location

Airport or City:

Trip Planner

Search our weather history database for the weather conditions in past years. The results will help you decide how hot, cold, wet, or windy it might be!

Date:

Astronomy

Jul. 28, 2014 Rise Set
Actual Time 6:09 AM CDT 8:17 PM CDT
Civil Twilight 5:40 AM CDT 8:46 PM CDT
Nautical Twilight 5:05 AM CDT 9:22 PM CDT
Astronomical Twilight 4:27 AM CDT 10:00 PM CDT
Moon 7:47 AM CDT (7/28) 9:04 PM CDT (7/28)
Length of Visible Light 15h 05m
Length of Day
14h 07m
Waxing Crescent, 3% of the Moon is Illuminated
Jul 28
Waxing Crescent
Aug 3
First Quarter
Aug 10
Full
Aug 17
Last Quarter
Aug 25
New

Hourly Weather History & Observations

Time (CDT) Temp. Heat Index Dew Point Humidity Pressure Visibility Wind Dir Wind Speed Gust Speed Precip Events Conditions
12:53 AM 72.0 °F - 57.0 °F 59% 30.04 in 10.0 mi NNW 5.8 mph - N/A   Clear
1:53 AM 70.0 °F - 57.0 °F 63% 30.04 in 10.0 mi NNW 6.9 mph - N/A   Clear
2:53 AM 68.0 °F - 57.0 °F 68% 30.04 in 10.0 mi NNW 4.6 mph - N/A   Clear
3:53 AM 66.0 °F - 57.0 °F 73% 30.05 in 10.0 mi NNW 5.8 mph - N/A   Clear
4:53 AM 64.0 °F - 57.0 °F 78% 30.07 in 10.0 mi NNW 5.8 mph - N/A   Clear
5:53 AM 63.0 °F - 55.9 °F 78% 30.09 in 10.0 mi NW 5.8 mph - N/A   Clear
6:53 AM 64.0 °F - 57.0 °F 78% 30.11 in 10.0 mi NW 5.8 mph - N/A   Clear
7:53 AM 66.9 °F - 57.9 °F 73% 30.11 in 10.0 mi NNW 8.1 mph - N/A   Clear
8:53 AM 71.1 °F - 57.9 °F 63% 30.12 in 10.0 mi NNW 8.1 mph - N/A   Clear
9:53 AM 73.9 °F - 60.1 °F 62% 30.13 in 10.0 mi North 5.8 mph - N/A   Clear
10:53 AM 77.0 °F - 59.0 °F 54% 30.14 in 10.0 mi Variable 6.9 mph - N/A   Clear
11:53 AM 79.0 °F - 59.0 °F 50% 30.13 in 10.0 mi North 6.9 mph - N/A   Clear
12:53 PM 81.0 °F 81.6 °F 60.1 °F 49% 30.12 in 10.0 mi NNW 11.5 mph - N/A   Scattered Clouds
3:53 PM 81.0 °F 81.1 °F 57.9 °F 45% 30.09 in 10.0 mi NW 8.1 mph - N/A   Partly Cloudy
5:53 PM 82.9 °F 82.1 °F 55.9 °F 39% 30.07 in 10.0 mi NNW 8.1 mph 17.3 mph N/A   Partly Cloudy
6:53 PM 80.1 °F 80.2 °F 55.9 °F 43% 30.06 in 10.0 mi NNW 6.9 mph - N/A   Partly Cloudy
7:53 PM 75.9 °F - 55.9 °F 50% 30.07 in 10.0 mi NNW 5.8 mph - N/A   Clear
8:53 PM 72.0 °F - 55.9 °F 57% 30.08 in 10.0 mi NNW 5.8 mph - N/A   Clear
9:53 PM 69.1 °F - 55.9 °F 63% 30.11 in 10.0 mi North 4.6 mph - N/A   Clear
10:53 PM 66.9 °F - 57.0 °F 70% 30.12 in 10.0 mi North 6.9 mph - N/A   Clear
11:53 PM 64.0 °F - 57.0 °F 78% 30.13 in 10.0 mi NNE 4.6 mph - N/A   Clear